Wind_Speed
52 50 50 50 50 50 50 50 50 49 49 49 49 49 48 47 47 48 48 48 47 47 47 47 47 48 47 45 43 42 43 45 45 48 56 60 55 51 51 51 52 52 49 48 48 46 46 46 45 41 38 40 42 44 44 44 43 45 45 44 42 41 41 41 43 43 41 40 40 38 36 37 38 37 35 32 31 29 28 28 28 28 30 30 29
53 51 51 51 50 50 50 51 50 50 49 49 49 49 49 48 48 49 49 49 48 48 47 47 47 47 46 45 43 41 40 42 45 48 55 62 60 55 53 52 52 55 53 50 49 48 47 46 45 44 42 42 43 43 43 43 44 45 46 46 44 42 42 44 45 46 44 43 42 40 39 39 39 39 38 34 33 32 31 30 30 30 31 32 32
53 53 52 51 51 50 50 51 51 50 49 49 49 49 49 48 48 50 50 50 49 49 48 47 48 47 46 46 44 41 40 41 44 47 52 61 64 61 56 54 53 55 56 54 51 48 46 45 43 43 44 45 45 45 44 43 44 45 46 46 46 44 45 46 47 47 46 43 43 42 40 39 40 41 40 36 35 35 33 32 32 31 31 33 35
54 54 52 51 50 50 50 50 50 50 50 49 50 50 50 50 50 50 51 51 51 50 49 48 48 48 47 47 46 42 39 40 43 45 49 57 65 66 61 58 56 55 56 55 53 51 49 47 45 46 46 45 46 47 46 46 46 46 47 48 48 47 48 48 47 48 47 45 45 44 41 40 42 43 41 38 37 36 35 34 33 32 33 34 35
55 54 53 52 51 50 50 50 50 50 50 50 50 51 50 50 50 51 52 52 52 51 50 49 48 48 47 47 48 45 41 40 42 43 46 53 63 68 66 63 60 58 58 57 54 53 52 51 49 49 48 47 47 49 50 50 50 50 50 50 50 49 49 48 48 48 48 46 45 44 42 42 44 45 44 41 38 37 37 36 35 35 35 34 34
55 55 54 53 52 51 50 50 50 50 51 51 51 51 51 51 51 52 53 53 54 52 51 50 49 48 48 48 48 46 44 42 41 41 44 49 59 67 69 67 64 62 61 61 59 56 54 54 54 52 49 47 48 49 52 54 54 53 52 52 52 51 49 48 47 47 48 47 45 45 44 45 47 46 45 43 40 38 39 38 37 37 37 36 36
54 54 54 53 53 52 52 51 51 51 52 52 51 51 51 51 51 52 54 54 55 53 51 50 49 48 48 48 48 47 46 46 43 40 42 46 53 63 69 70 68 66 64 64 63 62 59 56 57 56 52 49 48 49 50 52 53 53 53 53 52 52 51 50 48 47 48 49 48 46 46 47 47 46 45 45 42 41 41 39 38 39 39 39 40
54 54 54 54 54 54 53 53 52 52 52 52 52 52 52 52 53 53 55 56 55 54 52 51 50 49 49 49 49 48 46 47 46 42 40 44 50 58 66 71 72 70 69 67 66 66 65 61 58 59 58 54 51 51 51 51 51 51 53 54 53 52 52 51 48 46 47 49 49 47 47 48 48 47 46 47 46 43 42 41 41 41 42 43 43
55 55 55 55 55 54 54 54 54 53 53 53 53 53 53 53 54 55 56 56 56 54 53 52 51 51 50 50 50 49 47 47 48 46 41 42 47 55 63 69 74 75 73 71 68 67 68 66 63 61 61 58 55 53 53 52 50 50 52 53 53 52 52 50 47 45 47 50 50 48 47 47 48 48 49 49 48 45 43 43 44 44 44 45 46
56 56 56 56 55 55 55 55 55 54 54 54 54 54 55 55 56 56 57 56 56 55 54 53 52 52 52 51 51 51 49 47 48 49 45 42 45 52 60 68 74 77 77 74 71 67 66 68 67 65 64 62 58 55 53 51 50 50 52 53 54 53 52 52 50 48 49 50 51 50 49 48 49 51 52 52 50 47 45 46 46 45 45 48 48
56 56 56 56 56 56 55 56 56 55 55 55 56 56 56 57 57 58 58 57 57 57 56 55 54 54 53 53 52 52 52 50 48 49 48 44 43 49 58 66 72 77 80 78 75 70 67 67 69 67 65 66 64 61 58 55 53 54 54 54 55 55 54 54 53 52 51 51 51 52 51 51 53 54 53 51 50 49 48 48 47 47 48 49 49
57 57 57 57 56 56 56 56 56 57 57 57 57 58 58 59 59 59 59 58 58 58 57 57 57 56 55 55 55 54 54 53 51 49 50 48 45 46 54 65 71 75 78 81 80 77 71 68 69 69 67 67 67 65 64 62 60 58 57 57 57 56 55 54 52 51 51 50 51 52 53 54 55 55 54 52 50 50 51 51 50 50 50 51 52
57 58 58 58 57 57 57 57 57 58 58 59 59 59 60 60 61 61 61 60 60 60 60 60 59 59 58 57 57 57 56 55 54 52 50 50 48 47 51 61 71 74 74 78 82 83 79 74 71 71 70 68 67 66 65 65 63 61 59 58 57 55 55 53 52 52 51 52 53 54 54 55 56 55 54 52 51 53 55 54 53 52 52 53 54
58 58 58 58 58 58 58 59 59 60 60 61 61 61 62 62 62 63 63 63 63 63 63 63 62 61 61 60 60 60 60 58 57 55 52 51 51 50 50 56 69 75 74 75 79 82 83 80 76 74 75 73 70 68 65 64 63 62 59 57 55 54 54 53 53 52 53 54 55 55 56 57 56 55 55 55 55 57 59 58 55 54 54 55 56
58 59 59 59 59 59 59 60 61 61 62 63 63 63 63 64 65 65 66 66 66 66 66 66 66 65 64 64 63 63 63 62 60 58 55 53 53 53 52 54 64 76 79 76 76 78 80 81 79 77 77 76 74 71 67 63 62 62 59 57 56 56 56 56 54 54 56 57 56 57 60 60 59 58 58 58 58 58 59 58 57 56 56 56 57
59 59 60 60 60 60 60 61 61 62 63 64 64 65 65 66 67 68 69 69 69 69 69 69 69 69 68 68 67 66 66 65 64 61 59 56 55 56 56 55 60 74 82 80 77 77 78 79 79 78 77 77 77 75 70 66 63 62 59 58 59 60 61 61 58 57 59 59 57 59 61 61 60 59 58 58 59 59 59 59 58 58 58 57 58
60 60 61 61 61 61 61 62 63 63 64 65 66 66 67 68 69 70 71 72 73 73 73 73 73 73 73 72 72 71 69 69 67 65 62 60 58 59 59 58 59 68 82 85 81 78 79 80 79 77 75 76 79 78 75 70 67 64 61 60 61 62 64 65 63 62 62 61 59 59 59 60 60 59 57 57 59 60 60 60 59 60 59 58 60
61 61 62 62 62 62 62 63 64 65 66 67 67 68 70 71 72 73 74 75 76 76 77 77 77 77 77 77 76 75 73 72 70 68 66 63 61 60 61 62 60 64 77 87 87 83 81 81 81 78 75 75 77 78 77 73 71 69 66 63 62 62 64 65 65 65 66 65 64 62 61 61 61 60 58 58 59 61 62 61 62 62 60 59 61
61 62 62 63 63 64 64 65 66 67 68 69 69 70 72 73 75 76 77 78 79 80 80 81 81 81 81 81 80 78 77 75 73 71 69 66 63 61 61 63 63 64 71 84 91 89 85 84 83 81 78 76 76 77 78 76 73 71 70 68 65 63 63 64 65 65 66 65 65 64 64 64 64 63 61 61 62 63 63 62 62 62 60 60 63
62 63 63 64 64 64 65 66 67 69 70 71 72 73 75 76 78 80 81 82 83 84 84 84 84 84 83 83 82 81 79 77 74 72 69 67 63 60 61 64 65 65 69 78 89 93 91 88 86 85 82 79 77 77 78 78 76 74 73 71 69 68 68 68 67 66 66 66 66 66 67 69 68 66 65 64 65 66 64 62 62 62 62 63 66
64 64 65 65 65 66 67 68 69 71 72 74 75 77 78 79 81 82 84 85 86 86 86 86 86 86 85 84 82 80 78 75 73 70 66 64 62 60 61 64 66 67 69 74 84 92 94 92 89 88 85 82 78 78 79 79 80 79 76 73 72 72 72 71 70 69 69 68 67 66 67 68 69 68 68 67 66 66 65 62 61 63 65 67 70
66 67 67 67 67 67 68 70 71 73 75 76 78 80 81 82 83 84 85 86 87 88 87 87 86 84 83 81 79 77 74 71 69 66 64 62 61 60 61 64 66 68 70 73 79 88 93 94 92 89 87 84 80 78 79 80 82 81 79 77 76 75 72 70 70 70 70 70 69 69 69 70 70 70 69 66 65 65 65 64 63 66 69 71 72
68 68 68 68 69 70 71 72 74 75 77 79 80 82 84 85 86 86 87 87 86 86 85 83 82 80 79 78 76 74 72 70 68 66 64 62 61 61 62 65 67 69 71 74 78 84 90 94 94 91 88 86 82 78 77 80 82 82 81 81 80 78 75 72 69 69 69 70 71 72 72 72 71 70 68 66 65 65 66 67 69 71 73 73 74
68 69 69 70 71 73 74 75 76 78 79 81 83 85 86 87 87 87 86 84 83 82 81 80 79 77 76 75 74 72 71 69 68 67 65 64 63 62 63 66 68 69 71 74 77 82 87 92 95 94 90 87 84 81 78 79 81 81 81 81 80 80 79 76 73 71 70 70 71 72 73 73 72 70 69 69 68 68 69 71 73 75 76 75 75
68 69 70 71 73 75 76 78 79 81 83 84 85 86 86 85 85 84 83 82 81 79 78 77 75 73 71 70 69 68 67 66 65 65 65 66 66 65 65 67 69 70 71 74 77 81 86 91 95 96 93 89 86 84 81 80 80 80 80 80 80 80 80 78 76 74 72 72 72 73 73 74 73 72 72 72 72 72 72 73 75 77 77 77 77
69 70 71 73 75 77 79 81 82 83 84 84 83 82 82 82 82 82 81 80 78 75 73 71 70 68 66 64 63 63 63 62 62 62 63 65 67 67 67 68 70 71 72 74 77 81 85 90 95 98 97 94 90 87 84 83 82 82 81 81 80 81 81 80 79 77 76 75 74 74 75 75 75 74 74 75 76 76 75 76 77 78 79 79 79
70 72 74 75 77 79 81 82 82 81 81 80 80 80 80 80 80 79 77 75 73 70 68 66 65 64 63 60 58 58 59 59 59 59 60 61 65 68 69 69 71 73 73 74 76 80 84 89 94 98 100 98 95 91 88 86 86 85 83 83 83 83 83 83 83 82 81 79 77 77 77 76 76 77 78 78 78 78 77 77 78 79 80 80 80
72 74 76 78 79 79 79 78 78 78 78 78 78 78 77 76 75 74 72 70 68 66 65 64 63 61 60 58 55 53 54 55 56 57 58 59 61 65 69 71 72 74 75 75 76 79 83 87 92 97 101 102 100 97 94 93 92 90 87 86 87 87 87 87 86 85 85 84 83 82 81 80 79 79 80 80 80 80 79 79 79 80 81 82 82
75 77 77 78 77 76 75 75 75 76 76 76 75 73 72 71 70 69 68 66 65 63 62 62 62 61 60 57 53 50 50 52 53 54 56 58 59 61 66 71 73 75 76 76 76 78 81 86 90 95 100 103 104 102 101 100 99 97 93 91 90 91 91 90 90 89 88 88 88 88 87 85 84 83 83 83 83 83 83 83 83 84 85 86 86
76 75 74 73 73 73 74 74 74 73 71 70 69 69 68 67 66 66 66 65 63 61 60 58 58 59 59 57 53 48 47 49 51 51 53 56 58 59 62 67 72 76 77 78 78 78 80 84 88 93 97 102 105 106 106 105 105 104 101 97 95 94 93 93 94 94 93 91 91 91 91 91 90 90 89 88 88 88 88 89 89 89 89 90 90
72 71 71 71 72 72 71 71 69 68 67 66 65 64 64 64 64 63 63 62 60 58 56 54 53 55 57 57 53 48 44 46 49 50 50 52 56 58 59 62 67 73 77 79 80 80 80 82 86 91 95 99 103 106 108 108 108 108 106 103 100 97 96 95 96 97 96 95 95 95 95 95 94 94 94 93 93 93 93 94 94 94 93 93 93
68 69 69 69 69 68 67 66 65 64 63 62 61 61 60 60 60 59 58 58 56 54 52 51 50 50 52 54 53 48 43 42 46 50 49 48 52 56 58 59 62 68 74 79 81 82 81 82 85 89 93 97 101 104 106 108 109 110 109 108 105 102 99 98 99 99 99 99 99 99 99 99 99 98 98 98 97 97 98 98 98 97 96 95 94
67 67 66 65 64 64 63 62 62 60 59 59 59 59 58 57 56 56 55 54 53 51 50 49 49 48 49 51 51 48 43 40 42 47 49 47 48 52 56 57 59 63 68 75 81 83 83 83 84 87 91 95 99 102 104 107 109 109 109 109 108 106 104 102 101 100 100 100 100 101 101 101 101 101 101 101 101 101 101 101 100 99 97 97 96
63 62 62 61 61 60 59 58 58 57 57 57 56 56 55 55 54 54 53 52 52 51 48 47 47 48 48 49 51 49 44 38 38 42 46 46 45 47 52 56 57 60 63 69 76 82 85 85 85 87 89 93 97 101 103 105 107 108 108 108 107 107 107 106 103 101 100 99 99 100 100 101 101 101 101 100 100 100 100 100 100 99 98 98 99
59 58 58 57 56 55 55 54 55 55 55 55 55 54 54 54 54 54 53 53 52 50 48 45 45 45 45 47 49 50 47 40 35 37 42 45 44 44 47 52 55 57 60 64 70 77 83 86 87 87 89 91 95 99 102 104 106 106 107 108 107 106 106 106 105 104 102 101 100 99 99 100 100 99 99 99 98 98 99 99 99 99 99 100 101
55 54 53 52 52 52 52 52 52 52 53 53 53 53 53 53 54 54 54 53 53 51 49 45 43 42 42 43 44 47 47 44 38 34 37 42 44 43 44 48 52 55 58 60 64 70 78 84 88 89 89 91 93 97 100 103 105 106 106 107 107 106 105 104 104 104 104 103 102 101 101 100 100 99 98 98 98 98 98 99 99 100 100 101 102
50 49 49 49 49 49 49 49 49 50 50 51 52 52 53 53 54 54 54 54 53 52 51 47 44 42 40 40 41 42 44 44 42 36 34 37 42 43 43 44 48 53 56 58 61 65 71 78 85 89 91 91 93 95 98 101 104 106 106 106 106 106 105 105 104 104 104 103 103 103 102 101 101 100 99 99 98 98 99 99 100 100 101 102 102
46 46 47 47 47 47 47 48 48 48 48 50 51 52 52 53 53 54 54 54 53 52 51 49 47 43 41 40 40 40 40 41 42 39 35 34 38 41 43 43 45 49 53 56 59 62 66 72 78 85 90 92 93 95 97 100 102 105 107 108 107 107 106 106 105 104 104 103 103 103 102 102 101 101 100 100 100 100 100 100 101 102 102 103 103
44 44 44 45 45 45 46 46 47 47 48 49 51 51 51 52 52 52 53 53 52 51 50 49 47 44 41 39 38 39 39 39 39 39 37 34 34 38 41 43 43 45 49 53 56 59 63 67 72 78 85 90 93 94 96 98 101 103 106 108 109 109 108 107 106 106 105 104 104 103 103 102 101 101 100 100 100 100 101 101 102 103 104 104 105
43 43 43 43 43 44 45 45 46 47 48 49 50 50 50 50 50 50 51 51 51 49 48 48 47 45 42 39 37 38 38 38 38 38 37 35 33 34 38 41 43 44 46 50 54 57 60 63 67 72 78 84 90 93 95 97 99 102 105 107 109 110 110 110 109 108 107 106 105 104 104 103 102 102 101 100 100 100 100 101 102 104 105 106 106
41 41 42 42 43 43 44 45 46 47 48 49 49 50 49 49 48 49 49 49 50 49 48 47 47 46 44 41 37 36 36 37 37 37 37 36 34 32 34 38 41 43 44 46 50 55 58 61 64 68 73 78 83 89 93 96 97 99 102 106 108 110 111 111 111 110 110 109 108 107 106 105 104 103 103 102 101 100 100 100 101 102 104 105 106
40 40 40 41 42 43 43 45 46 46 47 48 48 49 49 49 48 48 48 48 49 48 47 46 46 45 44 43 39 36 34 35 35 35 35 35 35 33 32 34 37 41 43 44 47 51 55 59 62 65 68 72 77 82 87 92 95 98 100 103 106 109 111 112 112 112 111 111 110 110 110 109 108 107 106 104 104 103 102 102 102 102 102 103 104
39 39 40 40 41 42 43 45 46 46 46 47 47 47 48 48 48 48 47 47 47 47 46 45 45 44 44 43 42 39 36 34 34 34 34 34 34 33 32 32 33 37 40 43 45 47 51 55 59 62 65 68 72 77 81 86 91 94 97 100 102 105 109 111 113 114 113 112 112 111 111 111 111 110 109 108 107 106 106 105 105 104 104 104 104
38 38 39 40 41 42 43 45 45 45 45 46 46 45 46 46 46 46 46 45 46 46 45 44 44 43 43 43 43 42 39 36 34 33 33 32 32 32 32 31 31 33 37 40 43 45 48 51 55 59 63 66 69 72 76 80 84 89 93 96 99 102 104 107 111 113 115 115 115 114 113 112 112 112 112 111 111 110 109 108 108 108 108 107 107
37 38 38 39 41 42 43 44 44 45 45 45 46 46 46 46 46 45 45 44 44 45 45 44 43 42 42 41 42 42 41 38 35 33 32 32 31 31 31 31 31 31 33 36 40 43 45 48 51 55 59 63 66 68 71 74 78 83 87 91 95 98 101 103 106 109 112 115 116 117 116 115 115 114 114 113 113 113 112 111 111 111 111 110 109
36 37 38 39 41 42 43 43 43 44 44 45 45 46 46 46 46 46 45 44 44 44 44 43 43 42 42 41 40 41 41 40 37 34 32 31 31 31 30 30 30 30 31 33 36 39 43 45 48 51 55 59 62 65 68 70 73 77 81 85 89 93 96 99 102 105 107 110 113 115 117 118 118 118 117 116 116 116 115 115 114 114 114 113 113
35 36 38 39 41 41 42 42 43 43 44 45 45 46 46 46 46 45 45 44 44 44 45 44 43 43 42 41 40 39 40 40 39 36 33 30 30 30 30 29 29 29 30 31 33 35 39 42 45 48 51 54 57 61 64 67 70 72 75 79 82 86 90 94 97 100 103 105 108 110 113 115 117 119 119 119 119 119 119 118 118 118 118 118 117
35 36 38 39 40 40 41 41 41 42 43 44 45 45 45 46 46 45 45 45 44 44 45 45 45 44 44 43 41 40 39 38 38 37 35 33 30 29 29 29 29 29 29 29 30 32 35 38 41 44 47 50 53 56 59 63 66 69 71 74 77 80 84 87 91 95 98 101 103 105 108 110 113 115 117 118 119 120 121 121 121 121 121 121 121
35 37 38 38 39 40 40 40 41 42 43 44 45 45 45 45 46 46 46 45 45 45 45 45 45 44 44 44 44 42 39 38 37 36 35 34 33 31 29 29 29 28 28 28 29 31 32 34 37 40 43 46 49 52 55 58 61 65 68 71 73 76 78 81 84 88 91 95 97 100 103 105 107 110 112 114 115 117 118 119 120 120 121 121 122
36 37 37 38 38 39 40 41 41 41 42 43 45 46 46 46 46 46 46 47 46 46 46 45 44 44 43 43 44 44 42 40 38 36 35 34 33 32 30 29 28 28 28 28 28 30 31 32 34 36 39 43 46 48 51 54 57 60 63 66 69 72 75 77 80 82 85 88 90 93 96 99 102 104 106 108 110 112 113 115 116 117 118 119 120
36 36 36 37 38 39 40 41 42 42 42 43 44 46 47 48 48 48 48 48 47 47 46 46 45 45 44 43 43 44 44 43 42 40 37 36 34 33 32 30 29 28 28 28 28 29 30 31 32 34 36 39 42 45 48 50 53 56 59 62 64 67 70 73 76 78 81 83 85 87 90 92 95 97 100 102 104 106 108 110 111 113 114 115 116
Wind_Direction
275 276 277 276 274 272 270 269 268 268 268 270 272 275 277 278 277 277 278 279 280 282 283 282 282 283 283 282 279 276 271 266 259 247 236 232 233 239 246 246 241 238 238 237 237 237 239 241 244 247 246 245 249 251 251 251 251 252 255 258 260 262 263 263 264 266 267 268 270 274 280 284 285 287 287 290 297 301 304 305 302 294 288 287 292
277 277 277 276 274 272 270 268 268 268 268 270 272 274 276 277 276 276 278 279 280 281 283 283 283 284 285 286 283 278 275 269 261 251 239 232 230 232 240 245 242 237 237 238 239 240 241 241 243 245 243 241 244 248 251 252 252 252 255 258 260 262 262 262 263 265 267 269 271 273 278 281 282 282 283 287 294 297 298 300 299 296 293 289 289
277 278 277 275 274 272 270 269 268 268 268 270 272 274 275 276 276 276 277 279 280 282 283 283 284 285 286 288 287 282 278 274 265 255 244 234 230 229 234 240 242 237 235 237 238 237 237 236 236 238 238 237 239 243 246 248 250 252 255 257 259 261 261 261 263 266 268 269 271 273 276 277 278 279 280 284 289 291 293 297 296 294 295 291 287
278 277 276 275 273 272 270 269 268 268 269 270 272 274 275 275 275 276 277 279 281 282 283 284 285 286 288 289 290 287 282 278 271 260 248 237 230 228 230 235 239 238 234 235 237 236 234 232 231 233 235 236 238 240 242 243 246 251 254 255 257 258 260 261 263 266 267 268 270 273 275 275 275 275 277 281 285 286 290 295 294 292 294 292 286
276 275 275 274 273 272 270 270 269 269 269 270 272 273 274 274 275 276 277 279 281 282 283 285 286 287 289 290 291 290 286 282 276 266 255 242 232 228 228 231 236 238 234 232 234 234 235 232 230 232 234 235 238 240 242 242 244 248 252 255 255 256 258 260 262 265 266 267 269 272 272 271 270 272 275 279 282 284 288 292 291 291 293 291 285
275 275 275 275 274 273 272 271 270 269 270 270 272 273 274 274 275 276 277 279 280 282 283 285 287 287 289 291 292 292 290 286 281 272 262 249 236 230 228 228 233 236 235 232 231 231 233 232 230 230 233 235 238 240 242 244 245 247 252 254 254 253 254 257 259 261 263 264 266 267 267 268 270 273 277 279 280 282 286 290 289 289 291 288 284
276 276 276 276 276 275 274 273 272 271 271 272 272 273 274 275 276 276 277 278 280 281 283 284 286 287 289 290 292 293 293 290 285 277 267 257 243 233 229 227 229 234 235 233 231 231 231 231 230 229 231 234 236 239 241 244 246 248 250 251 251 250 251 254 256 259 261 264 266 267 267 270 272 274 278 280 280 281 285 289 288 288 290 288 284
277 277 277 276 276 276 275 274 274 273 273 273 274 275 275 276 276 277 277 278 279 281 283 284 285 286 288 289 291 293 294 293 289 283 273 263 250 238 231 227 226 230 233 233 233 233 232 232 232 231 232 234 237 239 241 243 244 246 247 249 250 250 250 252 255 258 260 262 265 268 268 269 271 272 275 277 279 281 284 286 285 286 289 288 286
277 277 277 277 276 276 276 275 275 274 274 274 275 275 275 276 276 277 277 278 280 281 282 283 284 285 286 288 290 292 293 293 291 288 280 269 257 243 234 228 225 227 231 233 233 234 234 234 233 232 232 232 234 238 240 241 241 242 245 247 249 251 251 251 252 253 255 257 261 265 266 266 269 271 273 275 277 280 282 281 281 285 287 286 286
277 277 277 277 277 276 276 275 275 274 274 274 274 275 276 276 277 277 278 279 280 281 282 282 283 284 285 287 289 291 292 292 292 290 284 275 263 250 237 230 226 226 229 231 232 233 234 234 233 233 232 231 231 234 237 239 239 241 244 246 248 250 251 251 250 251 253 255 259 263 264 265 266 268 270 273 276 279 279 278 280 283 284 284 284
277 278 278 278 277 277 276 275 275 274 274 274 274 275 275 276 277 278 279 280 281 282 282 283 283 284 284 286 287 289 291 291 290 290 287 279 269 256 243 233 228 227 228 229 230 231 232 233 233 233 232 231 230 232 235 237 239 241 243 246 248 249 250 251 252 253 254 256 259 262 262 264 265 266 269 272 275 277 278 278 280 280 281 281 282
278 279 279 278 278 277 276 276 275 275 275 275 275 275 276 277 278 279 280 281 282 282 283 283 283 284 284 285 286 287 289 290 289 288 287 282 273 261 248 237 230 228 228 229 229 230 231 232 233 232 231 231 232 233 235 236 238 240 241 244 247 249 250 250 252 253 255 257 259 258 259 261 263 265 268 270 272 275 277 277 278 278 279 279 280
280 280 280 280 279 278 277 276 276 276 276 276 276 276 277 278 279 280 281 282 282 282 283 283 283 284 284 285 286 287 287 288 287 286 285 284 277 266 253 240 232 228 228 230 230 231 231 232 234 233 231 231 232 233 234 235 237 239 242 244 246 247 248 248 249 252 255 256 255 254 256 259 261 264 267 269 271 273 274 274 274 276 278 277 278
281 281 281 281 280 279 278 278 278 277 277 277 278 278 279 280 280 281 282 282 282 282 283 283 283 283 284 284 285 286 286 286 286 285 283 282 279 271 259 244 233 228 227 229 231 232 232 233 234 234 232 232 233 233 234 235 237 239 242 244 245 245 246 246 247 249 251 252 253 254 254 256 257 260 263 264 266 268 269 271 273 274 275 276 277
281 282 282 282 281 281 281 280 280 280 279 280 280 280 280 281 281 282 282 282 282 282 283 283 283 284 284 284 284 285 286 285 284 283 282 280 280 275 264 251 237 228 225 227 229 231 232 232 233 234 233 232 234 235 235 236 238 239 241 242 243 244 243 243 244 245 247 249 252 254 256 256 256 257 260 263 265 267 268 269 271 272 273 274 277
281 283 283 283 283 283 282 282 282 281 281 281 281 281 281 281 281 282 282 282 282 283 283 283 284 284 284 284 284 284 284 284 283 282 280 278 279 276 267 256 242 231 226 225 227 229 230 230 231 232 232 232 233 234 235 235 236 238 240 240 241 242 242 241 242 244 246 249 251 254 256 257 257 258 261 264 266 267 267 268 269 271 273 275 276
282 284 284 284 284 284 284 283 283 283 282 282 282 282 282 282 282 282 282 283 283 283 284 284 284 285 284 284 285 284 283 283 282 281 279 277 277 275 267 257 247 235 227 224 225 226 228 228 229 230 231 231 232 233 234 234 234 236 238 239 239 241 242 243 243 244 246 248 249 250 252 254 256 259 262 263 265 266 266 268 271 273 274 275 276
284 285 286 285 285 285 285 285 284 284 284 284 283 283 283 283 283 283 283 283 284 284 284 284 284 285 285 284 284 283 283 282 281 280 278 276 274 271 265 256 249 239 230 226 224 225 226 227 227 228 230 232 233 234 234 234 235 236 238 239 239 240 242 243 244 245 246 248 249 250 251 253 257 260 261 261 262 263 265 268 272 273 274 275 275
285 287 287 286 286 286 286 286 286 285 285 285 285 284 284 284 284 284 284 284 284 284 284 284 284 284 284 283 283 282 281 281 280 278 277 275 271 267 261 254 248 242 234 228 225 225 226 226 227 228 230 232 234 235 235 235 235 237 238 239 240 240 240 241 242 244 246 248 250 252 254 256 257 258 259 259 259 261 264 267 269 270 271 271 271
286 288 288 288 287 286 286 285 285 285 285 284 284 284 283 283 283 284 284 283 283 283 283 283 283 283 282 282 281 281 280 279 278 276 274 272 268 262 256 252 248 243 237 231 227 226 226 227 228 229 230 232 234 235 236 236 236 237 239 239 240 241 241 241 241 243 246 249 251 253 255 257 259 259 260 259 259 261 263 264 265 266 267 267 268
287 288 289 288 287 286 285 285 284 284 284 284 284 283 283 283 283 283 283 283 283 283 283 283 283 282 282 281 280 279 278 277 275 273 271 267 264 258 253 250 246 242 239 233 229 227 226 227 228 229 230 232 233 235 236 237 237 238 239 240 240 241 242 243 243 245 246 248 250 252 254 257 259 259 258 258 259 262 263 264 265 265 265 265 267
287 288 288 287 286 286 285 285 285 284 284 284 284 284 284 284 284 283 284 284 284 284 284 283 283 283 282 281 279 278 276 274 272 269 266 263 260 255 250 247 245 242 239 235 231 228 227 226 227 228 230 231 232 234 236 236 237 238 239 240 240 240 242 243 245 245 246 247 249 250 253 254 256 257 257 258 259 261 262 263 264 264 264 265 267
286 287 287 287 286 286 286 286 286 286 286 286 286 286 286 286 286 286 286 286 285 285 285 284 284 283 282 280 279 277 274 272 269 266 263 259 256 252 248 246 244 241 238 236 233 230 228 226 226 227 228 230 230 232 234 236 237 237 238 239 240 240 241 242 243 244 245 246 247 249 250 252 253 255 256 258 258 259 259 260 261 262 264 265 267
286 286 287 287 287 288 288 288 288 288 288 289 289 289 289 289 288 288 288 288 287 287 287 286 285 284 282 280 279 276 273 270 267 263 260 256 253 250 246 244 243 240 238 236 234 231 229 227 226 225 227 228 229 230 231 233 235 237 237 238 238 239 240 241 242 243 244 245 246 247 248 249 250 253 255 256 256 256 256 256 258 260 261 263 265
286 286 287 288 288 289 289 290 290 290 291 291 291 291 290 290 290 290 290 290 290 289 289 288 286 284 282 280 278 276 273 270 266 262 258 254 251 248 245 243 242 241 238 236 234 232 230 228 227 226 225 226 228 229 229 230 233 235 235 236 236 238 239 240 241 242 243 244 244 245 246 247 249 251 254 255 255 255 256 256 257 259 261 262 264
287 287 288 289 290 290 291 291 292 292 292 292 292 292 292 292 292 292 292 292 291 291 290 288 287 285 283 280 278 276 273 270 266 262 258 253 249 246 243 241 241 240 238 236 234 232 230 229 228 227 226 225 226 228 228 228 230 233 234 235 235 237 237 238 238 239 241 242 244 245 247 248 250 252 254 254 254 255 256 257 258 261 263 264 266
288 289 290 290 291 292 292 293 293 293 292 292 293 293 293 293 293 293 293 293 293 292 291 289 288 286 284 281 278 275 273 270 267 263 259 254 249 245 242 240 239 239 238 236 234 233 231 230 229 228 227 226 225 226 227 227 229 232 234 235 236 237 238 238 237 237 239 241 243 245 247 249 251 252 253 253 253 254 255 257 259 261 263 265 266
290 291 291 292 293 293 293 293 293 293 293 294 294 294 295 295 295 295 295 294 294 294 293 292 290 288 286 284 280 276 273 270 267 263 260 255 250 246 242 239 237 238 238 237 235 233 231 230 229 229 229 228 226 225 226 227 229 231 233 236 237 238 239 240 239 239 239 240 242 245 246 248 249 250 251 251 252 253 254 256 258 260 262 263 265
292 292 293 293 293 293 293 293 293 294 295 295 296 296 296 296 296 296 296 296 296 295 294 293 292 290 288 286 284 280 275 271 268 263 260 257 252 247 243 240 237 236 237 236 235 234 232 231 230 229 229 229 228 227 226 228 230 232 233 234 237 239 240 241 241 241 241 241 242 244 246 248 248 249 250 250 251 252 254 255 257 259 261 263 264
293 293 293 293 294 294 294 294 295 295 295 296 297 297 298 298 298 298 298 298 297 296 294 293 291 290 289 288 286 283 278 274 270 264 259 257 254 249 245 241 238 235 235 236 235 234 233 231 230 230 230 230 230 229 228 228 231 233 234 234 235 237 239 241 242 242 241 241 242 244 246 247 248 249 250 250 251 253 254 256 258 260 261 263 264
293 294 294 294 294 294 295 295 295 296 296 297 298 298 299 299 299 299 299 298 298 296 295 292 290 289 289 288 288 285 281 275 271 267 261 256 254 252 247 243 240 236 234 234 235 234 233 232 231 230 230 230 231 231 230 230 231 233 235 236 236 236 238 240 241 242 242 242 241 242 244 246 248 249 250 252 253 254 256 257 259 261 263 264 265
293 294 294 294 295 295 295 295 296 297 298 298 299 299 299 300 300 300 300 300 300 299 298 296 294 291 289 289 288 287 283 277 272 269 265 258 254 252 250 245 242 238 235 234 234 234 234 233 232 231 230 230 231 231 232 232 232 233 235 237 237 237 237 239 240 242 243 243 243 243 244 246 248 250 251 253 254 256 257 259 261 262 263 264 265
294 294 294 294 295 295 296 296 297 298 299 299 300 300 301 302 302 303 304 304 304 303 303 302 300 297 294 292 290 288 285 280 273 269 267 262 255 251 251 248 244 240 237 234 233 234 234 233 232 232 231 231 230 231 232 232 233 233 235 236 238 238 238 239 240 242 243 244 245 246 246 247 249 250 252 253 255 256 258 259 260 261 262 263 263
294 294 294 295 295 296 296 298 299 300 300 301 302 303 304 305 306 307 307 308 307 307 306 306 304 302 299 296 293 291 289 284 276 270 268 265 258 252 250 249 246 243 239 236 234 233 234 233 233 232 232 232 231 231 232 232 233 233 234 235 237 239 240 240 241 242 243 244 246 247 248 248 249 250 252 253 255 256 258 259 260 260 261 261 262
294 294 294 294 295 296 297 299 300 301 302 304 305 307 308 310 311 311 311 311 310 309 308 308 306 304 301 298 295 294 292 288 281 273 269 267 262 255 250 249 248 245 242 238 236 234 233 234 233 233 233 232 232 232 232 232 233 233 234 235 236 238 239 241 241 242 243 244 245 247 248 249 250 250 251 252 253 255 256 257 259 259 260 261 261
294 294 294 294 295 297 298 300 301 303 305 307 308 310 312 312 313 313 313 313 313 312 311 310 308 306 302 298 295 293 293 291 287 279 271 268 265 260 253 249 248 247 244 241 238 236 234 234 234 234 233 233 233 233 233 233 233 233 234 235 235 236 238 239 241 242 243 244 245 246 247 248 249 250 251 252 252 253 254 255 257 258 259 260 261
293 293 294 295 296 298 299 300 302 304 307 309 311 312 314 314 315 316 316 316 316 315 314 313 312 310 307 302 297 293 292 291 289 284 276 269 266 263 258 251 248 247 246 243 240 237 235 234 234 234 234 234 233 234 234 234 234 234 234 234 235 236 237 238 239 241 242 243 244 245 247 248 249 250 250 251 251 252 253 254 255 257 258 259 260
292 293 294 295 297 299 300 302 305 307 309 311 313 314 316 317 317 317 317 317 317 318 317 316 315 314 311 308 303 297 293 291 290 287 281 273 267 264 261 256 250 247 246 245 242 240 237 236 235 234 235 235 234 234 234 235 235 235 235 235 235 236 236 237 238 240 241 242 243 244 245 247 248 249 250 250 251 252 252 253 254 256 257 258 259
292 293 294 296 298 300 302 304 307 309 311 313 314 316 317 317 317 318 319 318 318 318 317 316 316 315 314 312 308 303 298 294 291 289 285 279 271 265 263 260 255 250 246 245 244 242 240 238 236 235 235 235 235 235 235 235 235 235 236 236 236 236 237 237 238 239 240 241 242 244 245 246 247 248 249 250 251 251 252 252 253 254 255 256 257
293 294 296 298 299 302 304 307 310 312 313 314 315 316 316 318 319 319 319 319 318 319 319 319 318 317 317 315 313 309 304 299 295 291 288 283 276 269 264 261 258 254 249 246 245 244 242 240 238 237 236 235 236 236 236 236 236 236 236 236 237 237 237 238 239 239 240 241 242 243 244 245 246 247 248 249 250 251 252 253 253 254 254 255 256
295 297 298 300 302 304 307 310 311 313 314 314 315 316 317 319 320 320 321 321 321 322 322 321 320 319 318 317 315 312 308 303 298 294 291 288 282 274 267 263 261 257 253 248 245 244 243 242 240 239 237 237 236 237 237 237 237 237 237 237 237 238 238 239 239 240 241 241 242 243 244 245 246 247 248 249 250 251 252 253 254 254 255 256 257
297 298 300 301 304 306 308 310 312 313 314 315 316 318 319 320 322 323 324 324 323 322 322 322 321 321 320 319 318 316 313 308 303 298 294 291 287 281 273 266 262 260 257 253 248 245 244 243 243 241 240 239 238 237 237 238 238 238 238 238 238 238 238 239 239 240 241 242 243 244 245 245 246 247 248 249 250 251 252 253 254 255 256 257 258
297 299 300 302 305 307 309 311 312 313 314 315 317 319 320 322 323 325 325 324 323 323 324 325 324 323 323 321 320 319 317 314 309 304 299 295 291 287 280 273 266 262 259 256 252 248 246 244 244 243 242 241 239 239 238 238 238 239 239 239 239 239 239 239 240 240 241 242 243 244 245 246 247 248 248 249 250 251 252 253 254 255 256 257 258
297 299 301 304 306 308 310 311 312 313 314 316 318 319 321 322 323 323 324 325 325 325 326 326 326 325 325 324 322 321 319 318 315 311 305 300 295 291 286 280 272 266 261 258 255 252 249 246 245 244 243 243 242 241 240 239 239 239 240 240 240 240 240 240 240 241 241 242 243 244 245 246 247 248 249 250 251 252 253 254 255 256 257 257 258
297 299 302 305 307 308 310 311 312 314 316 317 319 320 322 322 323 324 326 327 327 327 326 327 328 328 327 326 325 323 321 320 319 317 312 306 301 296 292 286 280 272 265 261 258 255 252 249 247 245 244 244 244 243 242 241 240 240 240 241 241 241 242 242 242 242 242 243 243 244 245 246 247 249 249 250 251 252 253 254 255 256 257 258 259
298 301 304 306 307 308 309 311 313 315 317 318 320 322 323 324 325 326 327 328 329 328 328 329 330 330 329 328 327 325 323 322 322 321 318 313 308 302 297 292 286 279 272 265 260 257 255 252 250 248 246 245 245 245 245 244 243 242 241 242 242 242 243 243 243 243 244 244 244 245 245 246 247 249 250 251 252 253 253 254 255 256 257 258 259
300 302 304 305 307 308 310 312 314 316 318 319 321 322 323 324 325 327 328 329 330 331 331 331 331 331 331 330 329 328 326 324 324 323 322 319 314 309 303 298 292 286 279 272 265 261 257 255 253 251 249 247 246 246 245 245 245 244 244 243 243 243 243 244 244 245 245 245 246 246 246 247 248 249 250 251 252 253 254 255 256 257 258 259 260
301 303 305 306 307 309 311 313 315 317 318 319 320 322 324 325 326 327 329 330 331 332 333 333 333 333 333 331 330 329 328 327 326 327 326 323 320 315 309 304 299 292 286 279 272 266 261 258 255 253 252 250 249 247 247 246 246 246 245 245 245 245 245 245 245 246 246 247 247 248 248 248 249 250 251 251 252 254 254 255 256 257 258 259 260
303 305 306 307 308 310 312 314 316 317 318 319 320 322 324 325 326 328 330 331 332 333 334 334 334 334 334 332 331 330 329 328 329 329 329 327 324 320 315 310 305 299 293 286 280 273 267 262 259 256 255 253 252 250 249 248 247 247 246 246 246 246 246 246 246 247 247 248 248 249 249 250 250 251 252 252 253 254 255 256 257 258 259 260 260
304 306 307 308 310 311 313 314 316 317 319 320 322 323 324 326 327 329 331 332 332 333 333 334 334 334 334 334 332 332 331 330 329 330 330 329 327 324 320 316 310 305 299 293 287 281 275 270 265 261 258 256 254 253 252 250 249 248 248 247 247 247 247 247 248 248 248 249 249 249 250 251 251 252 253 253 254 255 256 257 257 258 259 260 261
305 306 307 309 311 312 313 314 316 318 320 322 323 324 326 327 329 330 331 331 331 332 333 333 334 334 334 335 334 334 333 332 331 331 331 331 330 327 325 321 316 310 305 299 293 287 282 277 272 267 262 259 256 255 254 253 252 251 250 249 249 248 248 248 248 248 249 249 250 250 251 251 252 253 253 254 255 255 256 257 258 259 260 260 261
Height
10649 10649 10648 10647 10647 10647 10647 10647 10647 10647 10647 10648 10648 10648 10647 10646 10645 10644 10643 10642 10641 10640 10639 10637 10635 10633 10631 10631 10631 10631 10632 10632 10633 10632 10634 10636 10638 10640 10640 10642 10645 10647 10649 10651 10653 10655 10656 10657 10658 10660 10662 10663 10662 10662 10663 10664 10664 10664 10663 10664 10665 10667 10668 10668 10668 10669 10671 10672 10672 10672 10672 10669 10669 10672 10673 10673 10672 10672 10672 10673 10672 10671 10671 10670 10669
10643 10642 10641 10641 10641 10641 10641 10640 10640 10641 10641 10641 10642 10641 10641 10640 10639 10638 10636 10636 10635 10634 10633 10631 10629 10628 10626 10625 10624 10625 10626 10626 10625 10623 10624 10626 10630 10633 10634 10635 10637 10639 10642 10645 10647 10648 10649 10650 10652 10653 10655 10657 10657 10657 10658 10658 10659 10658 10659 10659 10660 10662 10663 10662 10663 10663 10665 10667 10668 10668 10667 10665 10664 10666 10668 10669 10668 10667 10668 10669 10668 10667 10667 10667 10666
10636 10636 10635 10635 10634 10634 10634 10634 10634 10634 10635 10635 10635 10635 10634 10634 10633 10631 10630 10629 10629 10628 10626 10625 10623 10622 10620 10618 10618 10618 10619 10618 10616 10615 10615 10617 10621 10625 10627 10628 10629 10631 10635 10637 10638 10639 10641 10643 10645 10646 10647 10649 10651 10651 10652 10653 10653 10653 10654 10654 10656 10657 10657 10656 10657 10658 10659 10661 10662 10662 10662 10661 10660 10660 10662 10665 10664 10662 10663 10664 10664 10663 10663 10663 10662
10629 10628 10628 10628 10628 10628 10628 10627 10627 10628 10628 10628 10628 10628 10627 10627 10626 10625 10624 10623 10622 10621 10620 10618 10617 10616 10614 10612 10611 10611 10612 10609 10607 10607 10607 10609 10612 10616 10619 10620 10622 10624 10627 10628 10629 10631 10633 10636 10638 10639 10640 10642 10644 10645 10645 10647 10647 10647 10648 10648 10650 10652 10651 10651 10653 10653 10654 10655 10655 10655 10656 10657 10655 10654 10656 10660 10659 10658 10658 10659 10659 10659 10659 10659 10658
10622 10621 10621 10621 10621 10621 10621 10621 10621 10621 10621 10621 10621 10621 10621 10620 10619 10618 10617 10616 10615 10614 10613 10612 10611 10609 10608 10606 10604 10604 10604 10601 10598 10599 10600 10600 10603 10607 10610 10612 10614 10617 10619 10621 10623 10625 10627 10629 10631 10633 10634 10636 10637 10638 10639 10640 10640 10641 10642 10643 10645 10646 10646 10647 10649 10648 10648 10649 10650 10650 10651 10652 10650 10649 10652 10655 10655 10653 10653 10654 10655 10654 10654 10654 10653
10615 10615 10615 10614 10614 10614 10615 10614 10614 10614 10614 10614 10614 10614 10614 10613 10613 10612 10611 10609 10608 10607 10606 10605 10604 10602 10601 10599 10598 10597 10596 10594 10591 10591 10591 10592 10594 10598 10601 10603 10606 10609 10611 10613 10615 10618 10620 10623 10625 10627 10628 10630 10631 10631 10632 10633 10634 10635 10636 10637 10638 10641 10641 10642 10644 10643 10641 10643 10644 10645 10645 10645 10644 10645 10646 10648 10649 10648 10647 10649 10650 10649 10649 10649 10648
10609 10608 10607 10607 10607 10607 10607 10607 10607 10607 10606 10606 10606 10606 10606 10606 10605 10605 10604 10602 10601 10601 10600 10598 10597 10596 10594 10593 10591 10590 10589 10587 10585 10584 10584 10583 10585 10588 10591 10594 10597 10600 10603 10605 10607 10611 10614 10616 10619 10621 10622 10624 10625 10624 10625 10626 10627 10629 10630 10630 10631 10634 10635 10636 10638 10638 10636 10636 10637 10639 10639 10638 10639 10640 10640 10640 10641 10641 10641 10643 10644 10644 10644 10644 10644
10602 10601 10600 10600 10599 10599 10599 10599 10599 10599 10599 10599 10599 10599 10599 10598 10598 10597 10596 10595 10594 10594 10593 10592 10590 10589 10587 10586 10584 10583 10582 10580 10578 10577 10576 10575 10576 10579 10582 10585 10588 10590 10594 10597 10600 10603 10606 10609 10612 10614 10615 10617 10618 10618 10618 10620 10621 10622 10623 10623 10625 10627 10628 10629 10631 10631 10631 10630 10630 10632 10632 10632 10632 10634 10634 10633 10634 10635 10636 10637 10637 10638 10638 10638 10638
10595 10594 10593 10592 10592 10592 10592 10591 10591 10591 10591 10591 10591 10590 10590 10590 10589 10589 10588 10587 10586 10586 10586 10585 10583 10582 10581 10579 10578 10577 10576 10574 10571 10570 10569 10568 10568 10569 10572 10575 10578 10581 10584 10588 10592 10595 10598 10601 10604 10605 10606 10609 10610 10611 10611 10613 10614 10615 10615 10616 10619 10620 10621 10622 10623 10624 10624 10624 10624 10624 10625 10626 10626 10627 10627 10627 10627 10630 10631 10631 10631 10632 10633 10631 10632
10588 10587 10586 10585 10585 10585 10584 10584 10584 10583 10583 10583 10582 10582 10581 10581 10581 10580 10580 10579 10579 10578 10578 10577 10576 10575 10574 10572 10570 10569 10568 10567 10565 10563 10562 10561 10560 10560 10562 10565 10568 10571 10575 10579 10583 10586 10589 10592 10594 10596 10598 10601 10603 10603 10605 10607 10608 10608 10608 10609 10612 10614 10615 10615 10615 10616 10617 10617 10617 10618 10619 10621 10620 10621 10621 10621 10622 10624 10625 10624 10624 10626 10626 10624 10625
10581 10580 10579 10578 10577 10577 10577 10576 10576 10575 10575 10575 10574 10574 10573 10573 10572 10572 10571 10571 10570 10570 10569 10569 10568 10567 10566 10565 10563 10562 10560 10560 10558 10556 10555 10554 10553 10552 10553 10555 10558 10562 10565 10569 10573 10577 10580 10583 10586 10588 10590 10592 10594 10596 10598 10600 10600 10600 10601 10603 10605 10608 10608 10607 10608 10610 10610 10610 10611 10612 10613 10614 10614 10615 10615 10616 10616 10617 10617 10617 10618 10618 10619 10618 10617
10574 10573 10572 10571 10570 10570 10569 10568 10568 10567 10567 10566 10566 10565 10565 10564 10564 10563 10563 10562 10562 10561 10560 10560 10559 10558 10558 10557 10555 10553 10552 10551 10550 10549 10547 10546 10545 10544 10544 10546 10549 10552 10556 10559 10563 10566 10571 10575 10578 10580 10582 10584 10586 10588 10591 10592 10592 10593 10594 10596 10598 10601 10601 10602 10602 10603 10603 10604 10604 10605 10607 10607 10608 10609 10610 10610 10611 10610 10610 10610 10611 10611 10611 10611 10610
10567 10566 10564 10563 10562 10562 10561 10560 10560 10559 10558 10558 10557 10557 10556 10556 10555 10554 10553 10553 10553 10552 10551 10550 10550 10549 10548 10547 10546 10545 10543 10542 10542 10540 10539 10538 10537 10536 10537 10538 10540 10543 10546 10549 10553 10557 10562 10566 10569 10571 10574 10576 10577 10580 10582 10583 10584 10586 10587 10589 10592 10594 10594 10595 10596 10595 10596 10597 10597 10599 10600 10600 10601 10603 10603 10604 10604 10603 10602 10603 10603 10604 10605 10604 10603
10560 10558 10557 10555 10555 10554 10553 10552 10552 10551 10550 10549 10549 10549 10548 10547 10546 10545 10543 10543 10543 10542 10541 10540 10539 10539 10538 10538 10537 10535 10534 10533 10533 10532 10531 10530 10529 10528 10528 10529 10531 10534 10537 10540 10543 10547 10552 10556 10560 10562 10564 10567 10568 10571 10573 10575 10576 10578 10580 10582 10585 10587 10587 10587 10588 10589 10590 10589 10590 10592 10593 10592 10594 10596 10596 10596 10596 10595 10594 10595 10597 10598 10598 10597 10596
10553 10551 10549 10548 10547 10547 10546 10545 10544 10543 10541 10540 10540 10540 10539 10537 10536 10535 10533 10532 10532 10531 10530 10529 10528 10528 10527 10527 10527 10526 10524 10523 10523 10523 10522 10522 10520 10519 10519 10520 10521 10524 10528 10531 10534 10538 10542 10547 10549 10550 10554 10559 10560 10562 10565 10566 10568 10571 10573 10575 10577 10579 10579 10579 10581 10582 10582 10583 10585 10585 10584 10584 10586 10588 10588 10588 10588 10588 10588 10589 10590 10590 10590 10590 10589
10546 10544 10542 10541 10540 10539 10538 10537 10536 10534 10533 10531 10531 10530 10529 10528 10526 10524 10522 10521 10520 10520 10519 10518 10516 10516 10515 10515 10515 10515 10514 10513 10512 10512 10512 10512 10511 10510 10509 10510 10511 10513 10517 10521 10524 10528 10533 10536 10538 10540 10546 10550 10551 10552 10555 10558 10561 10564 10565 10567 10569 10570 10570 10571 10574 10575 10574 10577 10580 10579 10576 10576 10578 10581 10582 10581 10581 10581 10581 10582 10583 10583 10583 10583 10582
10539 10537 10536 10534 10532 10532 10530 10528 10527 10525 10524 10523 10522 10521 10519 10517 10516 10513 10511 10509 10508 10507 10507 10506 10505 10504 10503 10503 10502 10502 10502 10501 10500 10500 10501 10501 10501 10500 10499 10499 10500 10502 10505 10510 10514 10518 10522 10526 10529 10532 10536 10538 10540 10543 10546 10549 10553 10556 10557 10559 10560 10561 10561 10563 10567 10568 10566 10568 10572 10571 10570 10570 10570 10573 10575 10575 10574 10573 10573 10574 10576 10575 10575 10576 10575
10532 10530 10528 10526 10524 10523 10522 10520 10518 10516 10514 10513 10512 10511 10508 10506 10504 10502 10500 10498 10496 10495 10494 10493 10492 10491 10491 10490 10489 10489 10489 10489 10488 10488 10488 10489 10489 10488 10487 10488 10489 10491 10493 10498 10503 10508 10512 10516 10519 10523 10526 10528 10530 10534 10538 10542 10546 10548 10549 10550 10551 10553 10553 10555 10558 10559 10559 10560 10562 10563 10564 10563 10562 10564 10567 10568 10567 10565 10565 10567 10567 10567 10569 10570 10567
10525 10523 10521 10519 10517 10515 10514 10512 10509 10507 10505 10503 10502 10500 10498 10495 10492 10490 10488 10486 10484 10483 10481 10480 10480 10479 10477 10477 10476 10476 10475 10475 10475 10475 10475 10475 10476 10476 10475 10476 10478 10479 10481 10485 10490 10496 10500 10504 10509 10513 10516 10518 10521 10525 10529 10533 10537 10539 10539 10541 10543 10545 10546 10547 10549 10551 10553 10554 10555 10555 10555 10554 10554 10556 10559 10560 10559 10557 10559 10561 10559 10559 10562 10562 10559
10517 10515 10513 10511 10509 10507 10505 10503 10500 10498 10495 10493 10492 10490 10487 10485 10482 10478 10476 10474 10472 10470 10469 10467 10466 10465 10464 10463 10462 10461 10461 10461 10461 10461 10461 10461 10462 10463 10463 10463 10465 10468 10470 10473 10478 10483 10488 10493 10497 10502 10506 10509 10513 10517 10520 10524 10528 10529 10530 10533 10535 10536 10535 10537 10540 10543 10546 10546 10546 10546 10545 10543 10545 10550 10551 10551 10551 10551 10552 10554 10554 10553 10554 10553 10549
10509 10507 10505 10503 10501 10499 10497 10494 10491 10489 10486 10483 10481 10479 10476 10474 10471 10468 10464 10461 10459 10457 10455 10454 10452 10450 10449 10448 10447 10446 10446 10446 10446 10446 10447 10447 10448 10449 10450 10451 10453 10456 10458 10461 10465 10470 10475 10481 10486 10490 10495 10499 10504 10507 10510 10514 10517 10519 10521 10524 10525 10524 10525 10528 10532 10535 10536 10537 10537 10538 10537 10535 10537 10541 10542 10542 10543 10543 10544 10546 10548 10547 10545 10544 10541
10501 10499 10497 10494 10492 10490 10488 10485 10482 10479 10476 10473 10470 10467 10464 10461 10458 10456 10452 10449 10446 10443 10440 10439 10437 10435 10433 10432 10431 10431 10431 10431 10431 10432 10433 10433 10435 10436 10437 10439 10441 10444 10446 10449 10453 10457 10463 10468 10474 10478 10483 10489 10493 10497 10501 10503 10505 10509 10512 10513 10513 10514 10517 10520 10523 10525 10527 10528 10530 10530 10530 10528 10528 10530 10532 10534 10535 10535 10535 10538 10540 10537 10534 10535 10535
10493 10490 10488 10485 10482 10480 10478 10475 10472 10469 10466 10462 10458 10454 10451 10447 10444 10441 10438 10435 10432 10429 10426 10424 10422 10420 10418 10417 10416 10415 10415 10416 10417 10418 10419 10420 10422 10423 10425 10426 10429 10431 10434 10437 10441 10445 10450 10456 10462 10467 10472 10477 10482 10487 10491 10493 10495 10499 10502 10503 10504 10506 10508 10511 10513 10516 10517 10519 10520 10521 10521 10521 10520 10521 10523 10525 10526 10527 10528 10528 10529 10527 10525 10526 10527
10484 10482 10479 10476 10472 10469 10467 10464 10461 10458 10454 10450 10446 10442 10438 10434 10430 10427 10423 10420 10418 10415 10412 10409 10407 10405 10403 10401 10400 10399 10399 10400 10401 10403 10405 10407 10409 10411 10412 10414 10416 10419 10422 10426 10430 10434 10438 10443 10449 10455 10460 10465 10470 10476 10481 10483 10485 10489 10491 10493 10495 10498 10499 10502 10505 10506 10507 10509 10510 10511 10512 10512 10513 10513 10514 10516 10517 10518 10519 10518 10517 10516 10517 10518 10518
10476 10473 10470 10467 10464 10460 10456 10453 10450 10447 10443 10439 10434 10430 10425 10420 10416 10412 10409 10406 10403 10401 10398 10395 10392 10390 10388 10387 10385 10384 10384 10385 10386 10388 10390 10393 10395 10398 10400 10402 10404 10407 10411 10414 10418 10422 10427 10432 10437 10442 10448 10453 10458 10464 10470 10474 10475 10478 10480 10483 10486 10488 10489 10492 10495 10496 10497 10498 10499 10500 10501 10502 10504 10505 10505 10506 10507 10508 10508 10508 10506 10506 10507 10509 10510
10467 10465 10462 10459 10455 10451 10447 10443 10439 10435 10431 10427 10423 10418 10413 10409 10404 10400 10396 10393 10390 10387 10385 10382 10379 10376 10374 10373 10372 10371 10370 10371 10372 10374 10376 10379 10381 10384 10387 10390 10392 10395 10399 10403 10407 10411 10415 10420 10424 10430 10435 10440 10446 10452 10459 10463 10463 10465 10468 10472 10474 10475 10477 10480 10483 10485 10486 10487 10489 10490 10492 10493 10494 10495 10495 10495 10496 10497 10498 10498 10497 10497 10498 10499 10500
10459 10456 10452 10449 10446 10442 10437 10432 10428 10424 10420 10416 10412 10407 10403 10398 10393 10388 10384 10380 10377 10374 10372 10370 10367 10364 10361 10360 10360 10359 10358 10358 10359 10361 10363 10365 10368 10371 10374 10377 10380 10383 10386 10391 10395 10399 10404 10408 10412 10417 10422 10428 10434 10441 10447 10450 10451 10453 10458 10462 10463 10464 10464 10467 10471 10473 10475 10478 10479 10480 10481 10483 10484 10485 10485 10485 10485 10487 10488 10489 10489 10488 10488 10489 10489
10450 10446 10442 10439 10435 10431 10427 10423 10418 10413 10409 10405 10401 10397 10393 10388 10382 10377 10373 10370 10367 10363 10360 10358 10355 10352 10350 10349 10348 10348 10348 10348 10348 10348 10349 10352 10354 10357 10360 10364 10368 10371 10374 10379 10383 10388 10392 10396 10401 10405 10410 10415 10421 10428 10433 10436 10438 10441 10446 10450 10451 10452 10453 10455 10459 10463 10467 10469 10469 10469 10470 10472 10472 10473 10473 10474 10475 10477 10478 10479 10480 10479 10479 10480 10480
10440 10436 10432 10428 10424 10420 10417 10413 10409 10404 10400 10395 10390 10386 10382 10378 10373 10368 10363 10360 10357 10353 10350 10347 10344 10341 10339 10338 10337 10337 10337 10337 10337 10337 10337 10339 10341 10344 10347 10351 10355 10358 10362 10366 10371 10376 10380 10385 10389 10393 10397 10402 10408 10414 10420 10423 10425 10429 10435 10438 10439 10440 10442 10445 10448 10451 10456 10459 10459 10459 10460 10461 10461 10461 10462 10463 10465 10467 10468 10469 10470 10471 10471 10471 10470
10430 10426 10423 10419 10415 10411 10406 10403 10399 10395 10392 10387 10383 10378 10373 10368 10364 10359 10354 10350 10348 10345 10341 10338 10335 10331 10328 10327 10328 10328 10328 10327 10326 10326 10326 10327 10329 10332 10335 10338 10342 10346 10350 10354 10359 10363 10368 10372 10377 10381 10385 10389 10394 10400 10406 10411 10413 10416 10422 10426 10427 10429 10432 10433 10435 10437 10442 10448 10450 10449 10449 10450 10450 10451 10451 10453 10455 10456 10458 10459 10460 10461 10462 10462 10461
10420 10417 10413 10409 10405 10401 10397 10393 10390 10386 10383 10379 10375 10371 10366 10361 10356 10352 10347 10342 10339 10336 10332 10330 10327 10324 10320 10317 10317 10318 10319 10318 10316 10315 10316 10317 10318 10320 10323 10327 10330 10334 10338 10342 10346 10350 10355 10360 10365 10369 10373 10377 10381 10386 10392 10398 10401 10404 10408 10412 10416 10418 10420 10422 10422 10424 10429 10435 10437 10438 10438 10438 10439 10440 10441 10443 10445 10446 10447 10449 10450 10451 10452 10452 10452
10412 10408 10404 10400 10396 10393 10389 10385 10382 10378 10375 10371 10367 10363 10360 10355 10350 10345 10340 10334 10330 10327 10324 10321 10318 10316 10312 10309 10307 10308 10309 10309 10306 10305 10305 10307 10309 10310 10312 10315 10319 10322 10326 10330 10334 10338 10343 10348 10352 10357 10361 10365 10369 10373 10378 10384 10389 10392 10395 10398 10403 10407 10409 10410 10410 10412 10415 10419 10423 10425 10426 10427 10429 10430 10431 10433 10434 10436 10437 10438 10440 10441 10442 10443 10443
10403 10399 10396 10392 10388 10384 10381 10377 10374 10371 10368 10364 10360 10356 10352 10348 10343 10338 10334 10328 10323 10320 10317 10313 10310 10307 10304 10301 10299 10298 10299 10300 10298 10296 10295 10297 10299 10300 10302 10304 10307 10311 10315 10319 10322 10326 10331 10336 10340 10344 10349 10353 10357 10361 10365 10369 10375 10379 10383 10385 10389 10393 10396 10398 10399 10401 10404 10407 10410 10413 10416 10418 10419 10420 10421 10422 10423 10425 10426 10427 10429 10431 10432 10432 10432
10395 10391 10388 10384 10381 10377 10374 10370 10367 10363 10360 10357 10353 10349 10345 10341 10336 10331 10327 10322 10317 10313 10311 10308 10303 10299 10296 10293 10290 10289 10290 10291 10290 10288 10286 10287 10289 10291 10292 10294 10296 10300 10304 10307 10311 10315 10319 10323 10328 10332 10336 10340 10344 10348 10352 10356 10361 10366 10370 10373 10376 10379 10383 10386 10388 10391 10393 10395 10398 10400 10403 10406 10408 10410 10411 10413 10413 10414 10414 10415 10417 10418 10420 10420 10420
10387 10384 10380 10377 10374 10371 10368 10364 10361 10357 10353 10349 10345 10342 10338 10333 10329 10324 10320 10316 10311 10307 10305 10302 10298 10294 10290 10286 10283 10281 10280 10281 10282 10281 10279 10278 10280 10282 10284 10284 10286 10289 10293 10296 10300 10304 10308 10312 10316 10320 10324 10328 10332 10336 10340 10344 10348 10353 10357 10361 10364 10367 10370 10373 10376 10379 10382 10384 10386 10388 10390 10393 10396 10399 10401 10403 10404 10404 10404 10404 10404 10406 10407 10407 10407
10379 10376 10373 10370 10367 10365 10362 10359 10356 10352 10347 10343 10339 10335 10332 10327 10323 10318 10313 10309 10304 10300 10297 10295 10293 10289 10284 10281 10277 10275 10273 10272 10273 10273 10272 10271 10271 10273 10275 10276 10277 10279 10282 10286 10289 10293 10297 10300 10304 10308 10312 10316 10320 10324 10328 10332 10336 10340 10344 10348 10352 10355 10358 10361 10364 10367 10370 10372 10375 10376 10378 10381 10383 10386 10389 10391 10393 10394 10394 10394 10394 10394 10395 10394 10394
10372 10369 10367 10364 10362 10359 10356 10354 10351 10347 10343 10338 10334 10330 10326 10322 10317 10312 10307 10303 10299 10294 10290 10288 10286 10283 10279 10274 10271 10269 10267 10265 10264 10265 10265 10264 10263 10264 10265 10267 10269 10270 10272 10275 10279 10282 10286 10289 10292 10296 10300 10304 10308 10312 10315 10319 10324 10328 10332 10336 10339 10343 10346 10349 10352 10354 10357 10360 10362 10365 10367 10369 10371 10374 10377 10379 10381 10383 10384 10384 10384 10384 10384 10383 10382
10367 10364 10361 10359 10357 10354 10351 10348 10345 10342 10338 10334 10329 10325 10321 10316 10312 10307 10302 10297 10293 10289 10284 10281 10279 10276 10273 10269 10265 10262 10260 10259 10257 10257 10257 10257 10256 10256 10256 10258 10260 10261 10263 10265 10268 10272 10275 10278 10281 10285 10288 10292 10296 10300 10303 10307 10311 10315 10319 10323 10327 10331 10334 10337 10340 10342 10345 10348 10351 10353 10355 10357 10360 10362 10364 10366 10369 10371 10372 10373 10374 10374 10373 10372 10372
10361 10359 10357 10354 10352 10349 10346 10343 10340 10337 10333 10329 10325 10321 10317 10313 10308 10303 10298 10293 10289 10285 10280 10276 10273 10271 10268 10264 10260 10256 10254 10252 10250 10249 10249 10250 10250 10249 10248 10249 10251 10253 10255 10256 10259 10261 10264 10267 10270 10274 10277 10280 10284 10288 10291 10295 10299 10303 10307 10311 10314 10318 10322 10325 10328 10331 10334 10336 10339 10341 10344 10346 10348 10350 10352 10354 10356 10358 10360 10362 10363 10363 10362 10361 10361
10355 10354 10352 10349 10347 10344 10341 10338 10335 10331 10328 10324 10320 10316 10313 10309 10304 10300 10295 10290 10285 10281 10277 10272 10268 10265 10262 10259 10256 10252 10248 10245 10244 10242 10242 10242 10243 10242 10241 10241 10242 10244 10246 10248 10250 10251 10254 10257 10260 10262 10265 10269 10272 10276 10279 10283 10287 10291 10295 10299 10302 10306 10309 10312 10316 10319 10322 10325 10327 10329 10332 10334 10336 10338 10340 10342 10343 10345 10347 10349 10350 10350 10350 10350 10350
10350 10348 10346 10343 10341 10338 10335 10332 10330 10327 10323 10320 10316 10312 10308 10305 10301 10296 10291 10286 10280 10276 10272 10268 10263 10260 10257 10254 10251 10248 10244 10240 10238 10236 10235 10234 10235 10235 10235 10234 10234 10235 10237 10240 10241 10242 10244 10246 10249 10252 10255 10258 10261 10264 10268 10272 10275 10279 10283 10286 10290 10293 10297 10300 10303 10306 10309 10312 10315 10317 10319 10321 10324 10326 10328 10330 10332 10333 10334 10335 10336 10336 10336 10337 10338
10345 10343 10341 10339 10336 10333 10331 10328 10325 10322 10319 10315 10312 10307 10303 10299 10296 10292 10287 10282 10277 10272 10269 10264 10260 10255 10252 10248 10246 10243 10240 10236 10232 10230 10229 10228 10227 10228 10228 10228 10228 10228 10229 10231 10233 10234 10235 10237 10239 10242 10245 10247 10250 10253 10257 10261 10264 10268 10271 10274 10278 10281 10284 10288 10291 10294 10297 10300 10303 10305 10307 10309 10311 10314 10316 10318 10320 10321 10322 10322 10323 10324 10325 10325 10325
10341 10338 10336 10334 10331 10329 10326 10323 10321 10318 10315 10311 10308 10304 10300 10295 10291 10288 10284 10279 10274 10269 10265 10261 10256 10251 10247 10243 10240 10238 10235 10232 10228 10225 10223 10222 10221 10221 10221 10221 10221 10221 10221 10222 10224 10225 10227 10228 10230 10232 10234 10237 10239 10242 10246 10249 10252 10256 10259 10262 10266 10269 10272 10275 10279 10282 10285 10287 10290 10292 10294 10297 10299 10301 10303 10305 10307 10308 10309 10311 10312 10313 10314 10314 10313
10336 10334 10332 10329 10327 10324 10322 10319 10316 10313 10310 10307 10304 10301 10297 10293 10289 10285 10281 10276 10271 10265 10261 10258 10253 10248 10244 10240 10235 10232 10229 10227 10225 10221 10219 10217 10215 10214 10214 10214 10215 10215 10215 10215 10215 10217 10219 10220 10222 10223 10225 10226 10229 10231 10235 10238 10241 10244 10248 10251 10254 10257 10260 10264 10267 10269 10272 10275 10278 10280 10283 10285 10286 10288 10291 10293 10294 10296 10297 10299 10300 10300 10300 10302 10302
10331 10329 10327 10325 10323 10320 10318 10315 10312 10309 10306 10302 10299 10296 10293 10289 10285 10281 10277 10273 10268 10262 10258 10254 10250 10245 10241 10237 10233 10228 10225 10222 10220 10217 10215 10212 10210 10209 10208 10208 10208 10208 10208 10208 10208 10209 10210 10212 10213 10215 10216 10217 10219 10222 10225 10228 10231 10234 10237 10240 10243 10246 10249 10252 10254 10257 10260 10263 10266 10268 10271 10272 10274 10276 10278 10280 10281 10283 10285 10287 10287 10287 10287 10289 10291
10327 10325 10323 10321 10318 10316 10313 10311 10308 10304 10301 10298 10295 10291 10288 10284 10280 10277 10273 10269 10265 10259 10255 10251 10247 10242 10238 10234 10230 10226 10222 10218 10216 10213 10211 10208 10206 10204 10202 10202 10201 10201 10201 10201 10201 10201 10202 10203 10205 10206 10207 10208 10210 10213 10215 10218 10221 10224 10226 10228 10231 10235 10238 10240 10243 10245 10248 10250 10253 10256 10258 10260 10261 10263 10266 10267 10268 10270 10272 10274 10274 10274 10275 10276 10278
10323 10321 10319 10317 10315 10312 10309 10307 10304 10300 10297 10294 10291 10287 10284 10280 10277 10273 10269 10265 10261 10256 10251 10247 10243 10239 10235 10231 10227 10223 10219 10215 10212 10209 10207 10204 10202 10199 10197 10196 10195 10195 10195 10195 10195 10195 10195 10196 10196 10198 10199 10200 10202 10204 10206 10208 10211 10213 10216 10218 10221 10224 10227 10229 10231 10233 10235 10238 10241 10244 10246 10248 10249 10251 10253 10254 10255 10256 10258 10260 10261 10261 10262 10263 10264
10319 10317 10315 10313 10311 10308 10306 10303 10300 10297 10293 10290 10286 10283 10280 10276 10272 10269 10265 10261 10257 10253 10248 10243 10239 10235 10231 10227 10223 10220 10217 10213 10209 10205 10202 10200 10198 10196 10193 10191 10190 10189 10189 10188 10188 10188 10188 10189 10189 10189 10191 10192 10193 10195 10197 10199 10201 10203 10205 10208 10210 10213 10215 10218 10220 10222 10224 10226 10229 10231 10234 10235 10237 10238 10240 10242 10242 10243 10244 10246 10248 10249 10250 10250 10251
10315 10313 10311 10309 10307 10304 10301 10299 10296 10293 10290 10286 10282 10279 10276 10273 10269 10265 10261 10257 10253 10249 10245 10240 10236 10232 10228 10223 10219 10215 10212 10210 10207 10204 10200 10197 10194 10191 10189 10187 10185 10184 10183 10182 10182 10181 10181 10182 10182 10183 10183 10184 10185 10187 10188 10190 10192 10193 10195 10197 10200 10202 10204 10206 10208 10210 10212 10214 10216 10219 10221 10223 10224 10226 10228 10229 10230 10231 10232 10233 10235 10236 10236 10237 10237
10311 10309 10307 10305 10303 10300 10297 10295 10292 10290 10287 10283 10278 10274 10271 10268 10264 10260 10256 10252 10249 10245 10241 10237 10234 10230 10226 10221 10216 10211 10207 10204 10202 10200 10197 10194 10191 10188 10186 10183 10182 10180 10178 10177 10176 10175 10175 10175 10176 10176 10176 10176 10177 10178 10179 10181 10182 10183 10185 10187 10189 10191 10193 10195 10197 10199 10200 10202 10204 10206 10208 10210 10212 10213 10214 10216 10217 10218 10219 10220 10221 10222 10222 10223 10223
10307 10305 10303 10301 10298 10296 10293 10290 10287 10285 10282 10279 10275 10270 10266 10262 10259 10255 10252 10249 10245 10241 10238 10234 10230 10226 10223 10219 10214 10209 10204 10199 10196 10194 10192 10189 10187 10185 10182 10180 10178 10175 10174 10172 10171 10170 10170 10170 10170 10169 10169 10169 10170 10170 10171 10172 10173 10174 10176 10177 10179 10181 10182 10184 10186 10188 10189 10191 10192 10194 10196 10197 10199 10200 10202 10203 10204 10205 10206 10207 10208 10208 10208 10209 10210